Weather History for ESSD - June, 2013

Change the Weather History Date:

Saturday, June 15, 2013

  Actual Average Record
Temperature  
Mean Temperature 56 °F -  
Max Temperature 67 °F - - ()
Min Temperature 45 °F - - ()
Degree Days  
Heating Degree Days 9    
Growing Degree Days 6 (Base 50)    
Moisture  
Dew Point 43 °F    
Average Humidity 57    
Maximum Humidity 93    
Minimum Humidity 24    
Precipitation  
Precipitation 0.00 in - - ()
Sea Level Pressure  
Sea Level Pressure 29.77 in    
Wind  
Wind Speed 6 mph ()    
Max Wind Speed 13 mph    
Max Gust Speed -    
Visibility 6.2 miles    
Events      
T = Trace of Precipitation, MM = Missing Value Source: Averaged Metar Reports

Daily Weather History Graph

Daily Weather History Graph

Search for Another Location

Airport or City:

Trip Planner

Search our weather history database for the weather conditions in past years. The results will help you decide how hot, cold, wet, or windy it might be!

Date:

Astronomy

Jun. 15, 2013 Rise Set
Actual Time 3:29 AM CEST 10:28 PM CEST
Civil Twilight 1:31 AM CEST 12:28 AM CEST
Nautical Twilight Sun does not set Sun does not set
Astronomical Twilight Sun does not set Sun does not set
Moon 11:31 AM CEST (6/15) 12:17 AM CEST (6/15)
Length of Visible Light 22h 56m
Length of Day
18h 59m
Waxing Crescent, 37% of the Moon is Illuminated
Jun 15
Waxing Crescent
Jun 16
First Quarter
Jun 23
Full
Jun 30
Last Quarter
Jul 8
New

Hourly Weather History & Observations

Time (CEST) Temp. Windchill Dew Point Humidity Pressure Visibility Wind Dir Wind Speed Gust Speed Precip Events Conditions
12:00 AM 53 °F - 47 °F 75% 29.69 in 31 mi 2.2 mph - -   Scattered Clouds
12:20 AM 51.8 °F - 46.4 °F 82% 29.68 in 6.2 mi SSW 3.5 mph - N/A   Mostly Cloudy
12:50 AM 51.8 °F - 46.4 °F 82% 29.68 in 6.2 mi SSW 3.5 mph - N/A   Scattered Clouds
1:00 AM 50 °F - 46 °F 82% 29.71 in 31 mi WSW 4.5 mph - -   Scattered Clouds
1:20 AM 50.0 °F - 46.4 °F 87% 29.68 in 6.2 mi WSW 5.8 mph - N/A   Partly Cloudy
1:50 AM 46.4 °F 42.4 °F 44.6 °F 93% 29.71 in 6.2 mi WSW 8.1 mph - N/A   Unknown
2:00 AM 47 °F - 44 °F 86% 29.72 in 31 mi WSW 6.7 mph - -  
2:20 AM 46.4 °F 43.5 °F 44.6 °F 93% 29.71 in 6.2 mi WSW 5.8 mph - N/A   Unknown
2:50 AM 48.2 °F - 44.6 °F 87% 29.71 in 6.2 mi West 6.9 mph - N/A   Unknown
3:00 AM 49 °F - 44 °F 76% 29.73 in 31 mi WNW 6.7 mph - -  
3:20 AM 48.2 °F - 42.8 °F 82% 29.71 in 6.2 mi West 6.9 mph - N/A   Unknown
3:50 AM 46.4 °F 43.5 °F 42.8 °F 87% 29.71 in 6.2 mi West 5.8 mph - N/A   Unknown
4:00 AM 47 °F - 42 °F 78% 29.75 in 28 mi West 4.5 mph - -  
4:20 AM 46.4 °F - 41.0 °F 81% 29.74 in 6.2 mi West 2.3 mph - N/A   Unknown
4:50 AM 48.2 °F - 41.0 °F 76% 29.74 in 6.2 mi SSW 4.6 mph - N/A   Unknown
5:20 AM 50.0 °F - 41.0 °F 71% 29.74 in 6.2 mi West 4.6 mph - N/A   Unknown
5:50 AM 50.0 °F - 42.8 °F 76% 29.77 in 6.2 mi West 6.9 mph - N/A   Unknown
6:00 AM 51 °F - 43 °F 65% 29.78 in 28 mi WSW 6.7 mph - -  
6:20 AM 51.8 °F - 42.8 °F 71% 29.77 in 6.2 mi WSW 10.4 mph - N/A   Unknown
6:50 AM 53.6 °F - 42.8 °F 67% 29.77 in 6.2 mi WSW 6.9 mph - N/A   Unknown
7:00 AM 53 °F - 43 °F 59% 29.79 in 22 mi WSW 6.7 mph - -  
7:20 AM 53.6 °F - 42.8 °F 67% 29.77 in 6.2 mi WSW 6.9 mph - N/A   Unknown
7:50 AM 55.4 °F - 44.6 °F 67% 29.77 in 6.2 mi SW 6.9 mph - N/A   Unknown
8:00 AM 56 °F - 44 °F 53% 29.80 in 22 mi SW 6.7 mph - -  
8:20 AM 55.4 °F - 42.8 °F 63% 29.80 in 6.2 mi SW 8.1 mph - N/A   Unknown
8:50 AM 57.2 °F - 44.6 °F 63% 29.80 in 6.2 mi WSW 10.4 mph - N/A   Unknown
9:00 AM 57 °F - 44 °F 53% 29.80 in 25 mi SW 8.9 mph - -  
9:20 AM 57.2 °F - 44.6 °F 63% 29.80 in - WSW 8.1 mph - N/A   Clear
9:50 AM 59.0 °F - 44.6 °F 59% 29.80 in - SW 10.4 mph - N/A   Clear
10:00 AM 58 °F - 44 °F 49% 29.81 in 22 mi SSW 8.9 mph - -  
10:20 AM 60.8 °F - 44.6 °F 55% 29.80 in - SW 12.7 mph - N/A   Clear
10:50 AM 60.8 °F - 44.6 °F 55% 29.80 in - SW 11.5 mph - N/A   Clear
11:20 AM 59.0 °F - 42.8 °F 55% 29.80 in 6.2 mi SW 10.4 mph - N/A   Partly Cloudy
11:50 AM 60.8 °F - 42.8 °F 52% 29.80 in 6.2 mi West 9.2 mph - N/A   Scattered Clouds
12:00 PM 64 °F - 44 °F 36% 29.81 in 28 mi SW 6.7 mph - -   Partly Cloudy
12:20 PM 62.6 °F - 41.0 °F 45% 29.80 in - SW 6.9 mph - N/A   Clear
12:50 PM 60.8 °F - 42.8 °F 52% 29.80 in - West 9.2 mph - N/A   Clear
1:00 PM 63 °F - 40 °F 31% 29.81 in 25 mi SW 6.7 mph - -   Partly Cloudy
1:20 PM 60.8 °F - 41.0 °F 48% 29.80 in - SW 10.4 mph - N/A   Clear
1:50 PM 64.4 °F - 41.0 °F 42% 29.80 in - WSW 12.7 mph - N/A   Clear
2:00 PM 63 °F - 40 °F 31% 29.80 in 25 mi WSW 6.7 mph - -   Scattered Clouds
2:20 PM 64.4 °F - 39.2 °F 40% 29.80 in - WSW 9.2 mph - N/A   Clear
2:50 PM 66.2 °F - 41.0 °F 40% 29.80 in - SW 9.2 mph - N/A   Clear
3:00 PM 65 °F - 41 °F 29% 29.79 in 25 mi WSW 11.2 mph - -   Scattered Clouds
3:20 PM 66.2 °F - 39.2 °F 37% 29.80 in - SW 9.2 mph - N/A   Clear
3:50 PM 66.2 °F - 41.0 °F 40% 29.80 in 6.2 mi SW 10.4 mph - N/A   Partly Cloudy
4:00 PM 66 °F - 39 °F 26% 29.79 in 25 mi SW 13.4 mph - -   Scattered Clouds
4:20 PM 66.2 °F - 41.0 °F 40% 29.80 in - SW 11.5 mph - N/A   Clear
4:50 PM 64.4 °F - 37.4 °F 37% 29.80 in 6.2 mi SW 10.4 mph - N/A   Unknown
5:20 PM 64.4 °F - 37.4 °F 37% 29.77 in 6.2 mi WSW 10.4 mph - N/A   Unknown
5:50 PM 66.2 °F - 37.4 °F 35% 29.77 in 6.2 mi WSW 12.7 mph - N/A   Partly Cloudy
6:00 PM 66 °F - 38 °F 24% 29.78 in 31 mi SSW 8.9 mph - -   Scattered Clouds
6:20 PM 64.4 °F - 37.4 °F 37% 29.77 in 6.2 mi SSW 6.9 mph - N/A   Partly Cloudy
6:50 PM 62.6 °F - 41.0 °F 45% 29.77 in 6.2 mi South 5.8 mph - N/A   Unknown
7:00 PM 64 °F - 42 °F 33% 29.78 in 25 mi SSW 8.9 mph - -  
7:20 PM 64.4 °F - 42.8 °F 45% 29.77 in 6.2 mi SSW 9.2 mph - N/A   Unknown
7:50 PM 62.6 °F - 42.8 °F 48% 29.77 in 6.2 mi SSW 9.2 mph - N/A   Unknown
8:00 PM 62 °F - 43 °F 38% 29.77 in 25 mi SSW 6.7 mph - -  
8:20 PM 62.6 °F - 42.8 °F 48% 29.77 in 6.2 mi SSW 6.9 mph - N/A   Unknown
8:50 PM 60.8 °F - 44.6 °F 55% 29.77 in 6.2 mi SSW 6.9 mph - N/A   Unknown
9:00 PM 60 °F - 44 °F 44% 29.77 in 31 mi SSW 8.9 mph - -  
9:20 PM 59.0 °F - 44.6 °F 59% 29.77 in 6.2 mi SSW 5.8 mph - N/A   Unknown
9:50 PM 59.0 °F - 44.6 °F 59% 29.77 in 6.2 mi SSW 6.9 mph - N/A   Unknown
10:00 PM 58 °F - 44 °F 50% 29.77 in 31 mi SSW 4.5 mph - -  
10:20 PM 57.2 °F - 44.6 °F 63% 29.77 in 6.2 mi South 5.8 mph - N/A   Unknown
10:50 PM 57.2 °F - 42.8 °F 59% 29.77 in 6.2 mi Variable 2.3 mph - N/A   Unknown
11:20 PM 57.2 °F - 44.6 °F 63% 29.74 in 6.2 mi SSW 4.6 mph - N/A   Unknown
11:50 PM 55.4 °F - 44.6 °F 67% 29.74 in 6.2 mi South 4.6 mph - N/A   Unknown